Change the Weather History Date:

Friday, March 22, 2013

  Actual Average Record
Temperature  
Mean Temperature 40 °F -  
Max Temperature 48 °F 67 °F 85 °F (1951)
Min Temperature 35 °F 38 °F 15 °F (2002)
Degree Days  
Heating Degree Days 24    
Moisture  
Dew Point 34 °F    
Average Humidity 79    
Maximum Humidity 89    
Minimum Humidity 62    
Precipitation  
Precipitation 0.00 in - - ()
Sea Level Pressure  
Sea Level Pressure 29.91 in    
Wind  
Wind Speed 7 mph (NE)    
Max Wind Speed 12 mph    
Max Gust Speed 17 mph    
Visibility 9 miles    
Events      
Averages and records for this station are not official NWS values.
T = Trace of Precipitation, MM = Missing Value Source: NWS Daily Summary

Daily Weather History Graph

Daily Weather History Graph

Search for Another Location

Airport or City:

Trip Planner

Search our weather history database for the weather conditions in past years. The results will help you decide how hot, cold, wet, or windy it might be!

Date:

Astronomy

Mar. 22, 2013 Rise Set
Actual Time 7:24 AM CDT 7:37 PM CDT
Civil Twilight 6:58 AM CDT 8:03 PM CDT
Nautical Twilight 6:28 AM CDT 8:34 PM CDT
Astronomical Twilight 5:57 AM CDT 9:04 PM CDT
Moon 3:12 PM CDT (3/22) 4:18 AM CDT (3/22)
Length of Visible Light 13h 05m
Length of Day
12h 13m
Waxing Gibbous, 77% of the Moon is Illuminated
Mar 22
Waxing Gibbous
Mar 27
Full
Apr 2
Last Quarter
Apr 10
New
Apr 18
First Quarter

Hourly Weather History & Observations

Time (CDT) Temp. Windchill Dew Point Humidity Pressure Visibility Wind Dir Wind Speed Gust Speed Precip Events Conditions
12:38 AM 37.4 °F 32.8 °F 33.8 °F 87% 29.85 in 10.0 mi ENE 5.8 mph - N/A   Overcast
12:53 AM 37.0 °F 32.4 °F 34.0 °F 89% 29.84 in 10.0 mi East 5.8 mph - N/A   Overcast
1:03 AM 37.4 °F 33.8 °F 33.8 °F 87% 29.84 in 10.0 mi NE 4.6 mph - N/A   Overcast
1:18 AM 37.4 °F 32.8 °F 33.8 °F 87% 29.84 in 10.0 mi NE 5.8 mph - N/A   Overcast
1:53 AM 37.0 °F 32.4 °F 34.0 °F 89% 29.85 in 10.0 mi NE 5.8 mph - N/A   Overcast
2:53 AM 37.0 °F 32.4 °F 34.0 °F 89% 29.86 in 10.0 mi NE 5.8 mph - N/A   Overcast
3:02 AM 37.4 °F 32.1 °F 33.8 °F 87% 29.87 in 10.0 mi NE 6.9 mph - N/A   Overcast
3:53 AM 37.0 °F 31.6 °F 33.1 °F 86% 29.88 in 10.0 mi NNE 6.9 mph - N/A   Overcast
4:53 AM 36.0 °F 29.0 °F 32.0 °F 86% 29.90 in 10.0 mi North 9.2 mph - N/A   Overcast
5:53 AM 36.0 °F 30.3 °F 32.0 °F 86% 29.91 in 10.0 mi NNE 6.9 mph - N/A   Overcast
6:53 AM 36.0 °F 29.6 °F 32.0 °F 86% 29.91 in 10.0 mi NNE 8.1 mph - N/A   Overcast
7:10 AM 35.6 °F 29.9 °F 32.0 °F 87% 29.91 in 10.0 mi NNE 6.9 mph - N/A   Overcast
7:20 AM 35.6 °F 29.2 °F 32.0 °F 87% 29.91 in 10.0 mi NNE 8.1 mph - N/A   Overcast
7:53 AM 36.0 °F 31.1 °F 32.0 °F 86% 29.93 in 10.0 mi NE 5.8 mph - N/A   Overcast
8:05 AM 35.6 °F 31.7 °F 32.0 °F 87% 29.92 in 10.0 mi NNE 4.6 mph - N/A   Overcast
8:50 AM 37.4 °F 32.1 °F 32.0 °F 81% 29.93 in 8.0 mi NNE 6.9 mph - N/A   Overcast
8:53 AM 37.0 °F 31.6 °F 32.0 °F 82% 29.94 in 7.0 mi NNE 6.9 mph - N/A   Overcast
9:53 AM 37.9 °F 32.7 °F 33.1 °F 83% 29.94 in 5.0 mi NNE 6.9 mph - N/A   Haze
10:53 AM 39.9 °F 34.5 °F 33.1 °F 77% 29.93 in 6.0 mi NNE 8.1 mph - N/A   Haze
11:23 AM 41.0 °F 37.1 °F 33.8 °F 76% 29.93 in 7.0 mi NNE 5.8 mph - N/A   Overcast
11:53 AM 41.0 °F 38.0 °F 33.1 °F 73% 29.95 in 7.0 mi Variable 4.6 mph - N/A   Overcast
12:53 PM 42.1 °F 36.6 °F 34.0 °F 73% 29.94 in 8.0 mi North 9.2 mph - N/A   Overcast
1:53 PM 45.0 °F 39.3 °F 34.0 °F 65% 29.93 in 9.0 mi North 11.5 mph - N/A   Overcast
2:51 PM 46.4 °F 41.5 °F 35.6 °F 66% 29.91 in 10.0 mi NNE 10.4 mph - N/A   Overcast
2:53 PM 46.0 °F 42.5 °F 35.1 °F 66% 29.91 in 10.0 mi Variable 6.9 mph - N/A   Overcast
3:20 PM 46.4 °F 41.5 °F 33.8 °F 62% 29.91 in 10.0 mi NNE 10.4 mph 17.3 mph N/A   Overcast
3:53 PM 46.0 °F 40.6 °F 35.1 °F 66% 29.90 in 10.0 mi NNE 11.5 mph 16.1 mph N/A   Overcast
4:03 PM 46.4 °F 41.9 °F 33.8 °F 62% 29.90 in 10.0 mi NE 9.2 mph - N/A   Overcast
4:53 PM 46.0 °F 41.9 °F 35.1 °F 66% 29.90 in 10.0 mi ENE 8.1 mph - N/A   Overcast
5:53 PM 45.0 °F 40.6 °F 35.1 °F 68% 29.90 in 10.0 mi NNE 8.1 mph - N/A   Overcast
6:53 PM 45.0 °F 40.1 °F 35.1 °F 68% 29.89 in 10.0 mi NE 9.2 mph - N/A   Overcast
7:38 PM 42.8 °F 38.0 °F 35.6 °F 76% 29.92 in 10.0 mi ENE 8.1 mph - N/A   Overcast
7:53 PM 43.0 °F 38.2 °F 35.1 °F 74% 29.93 in 10.0 mi ENE 8.1 mph - N/A   Overcast
8:32 PM 42.8 °F 37.5 °F 35.6 °F 76% 29.93 in 10.0 mi ENE 9.2 mph - N/A   Overcast
8:53 PM 41.0 °F 35.2 °F 35.1 °F 79% 29.93 in 10.0 mi NE 9.2 mph - N/A   Overcast
9:53 PM 41.0 °F 34.3 °F 35.1 °F 79% 29.95 in 10.0 mi NNE 11.5 mph - N/A   Overcast
10:53 PM 39.9 °F 36.7 °F 35.1 °F 83% 29.96 in 10.0 mi NE 4.6 mph - N/A   Overcast
11:28 PM 39.2 °F 33.6 °F 35.6 °F 87% 29.96 in 10.0 mi NNE 8.1 mph - N/A   Overcast
11:53 PM 39.0 °F 34.0 °F 35.1 °F 86% 29.96 in 10.0 mi NE 6.9 mph - N/A   Overcast